Location: Usti nad Labem
(50.6670°N, 14.0330°E)
Time: 12:58:31
(UTC+02:00)

ISS - Visible Passes

Search period start: 28 July 2017 00:00
Search period end: 07 August 2017 00:00
Orbit: 400 x 408 km, 51.6° (Epoch: 28 July)

Date Brightness Start Highest point End Pass type
(mag) Time Alt. Az. Time Alt. Az. Time Alt. Az.
28 Jul -3.5 00:44:17 10° WNW 00:46:58 57° WNW 00:46:58 57° WNW visible
28 Jul -3.9 22:15:24 10° WSW 22:18:40 88° NNW 22:21:56 10° ENE visible
28 Jul -3.8 23:51:58 10° W 23:55:14 78° N 23:56:08 44° E visible
29 Jul -1.2 01:28:31 10° W 01:28:46 12° W 01:28:46 12° W visible
29 Jul -3.7 22:59:39 10° W 23:02:54 72° N 23:05:23 16° E visible
30 Jul -2.5 00:36:09 10° WNW 00:38:01 30° W 00:38:01 30° W visible
30 Jul -3.6 22:07:16 10° W 22:10:32 74° N 22:13:47 10° E visible
30 Jul -4.0 23:43:49 10° WNW 23:47:05 82° SSW 23:47:17 76° SE visible
31 Jul -3.8 22:51:28 10° WNW 22:54:45 81° N 22:56:35 24° E visible
01 Aug -1.7 00:28:03 10° W 00:29:12 19° W 00:29:12 19° W visible
01 Aug -3.7 21:59:07 10° W 22:02:22 73° N 22:05:38 10° E visible
01 Aug -3.5 23:35:38 10° WNW 23:38:31 51° SW 23:38:31 51° SW visible
02 Aug -3.9 22:43:15 10° WNW 22:46:31 75° SSW 22:47:51 32° ESE visible
03 Aug -1.2 00:20:06 10° W 00:20:28 12° W 00:20:28 12° W visible
03 Aug -3.8 21:50:52 10° WNW 21:54:08 86° N 21:57:11 12° E visible
03 Aug -2.6 23:27:28 10° W 23:29:49 29° SW 23:29:49 29° SW visible
04 Aug -3.5 22:35:00 10° W 22:38:09 47° SSW 22:39:10 33° SSE visible
05 Aug -3.8 21:42:34 10° WNW 21:45:48 68° SSW 21:48:33 14° ESE visible
05 Aug -1.7 23:19:33 10° W 23:21:11 17° SW 23:21:11 17° SW visible
06 Aug -2.5 22:26:49 10° W 22:29:38 28° SSW 22:30:35 23° S visible
